Weather History for Eagle River, WI

Change the Weather History Date:

Saturday, July 5, 2014

  Actual Average Record
Temperature  
Mean Temperature 67 °F -  
Max Temperature 77 °F 73 °F 89 °F (2012)
Min Temperature 57 °F 53 °F 41 °F (2006)
Cooling Degree Days 2    
Growing Degree Days 17 (Base 50)    
Moisture  
Dew Point 53 °F    
Average Humidity 60    
Maximum Humidity 90    
Minimum Humidity 44    
Precipitation  
Precipitation 0.01 in - - ()
Sea Level Pressure  
Sea Level Pressure 30.06 in    
Wind  
Wind Speed 6 mph (SW)    
Max Wind Speed 17 mph    
Max Gust Speed 28 mph    
Visibility 10 miles    
Events Rain    
Averages and records for this station are not official NWS values.
T = Trace of Precipitation, MM = Missing Value Source: NWS Daily Summary

Daily Weather History Graph

Daily Weather History Graph

Search for Another Location

Airport:

Trip Planner

Search our weather history database for the weather conditions in past years. The results will help you decide how hot, cold, wet, or windy it might be!

Date:

Astronomy

Jul. 05, 2014 Rise Set
Actual Time 5:13 AM CDT 8:49 PM CDT
Civil Twilight 4:35 AM CDT 9:27 PM CDT
Nautical Twilight 3:44 AM CDT 10:18 PM CDT
Astronomical Twilight 2:36 AM CDT 11:25 PM CDT
Moon 1:34 PM CDT (7/5) 12:17 AM CDT (7/5)
Length of Visible Light 16h 52m
Length of Day
15h 36m
First Quarter, 52% of the Moon is Illuminated
Jul 5
First Quarter
Jul 12
Full
Jul 18
Last Quarter
Jul 26
New
Aug 3
First Quarter

Hourly Weather History & Observations

Time (CDT) Temp. Dew Point Humidity Pressure Visibility Wind Dir Wind Speed Gust Speed Precip Events Conditions
12:15 AM 60.3 °F 46.0 °F 59% 30.19 in 10.0 mi South 4.6 mph - N/A   Scattered Clouds
12:35 AM 60.1 °F 46.0 °F 60% 30.19 in 10.0 mi South 4.6 mph - N/A   Scattered Clouds
12:55 AM 60.6 °F 46.6 °F 60% 30.19 in 10.0 mi SSW 3.5 mph - N/A   Overcast
1:15 AM 60.8 °F 46.9 °F 60% 30.18 in 10.0 mi Calm Calm - N/A   Mostly Cloudy
1:35 AM 60.8 °F 47.5 °F 62% 30.18 in 10.0 mi Calm Calm - N/A   Scattered Clouds
1:55 AM 60.3 °F 47.7 °F 63% 30.19 in 10.0 mi Calm Calm - N/A   Scattered Clouds
2:15 AM 60.1 °F 48.0 °F 64% 30.18 in 10.0 mi Calm Calm - N/A   Scattered Clouds
2:35 AM 60.3 °F 48.2 °F 64% 30.18 in 10.0 mi Calm Calm - N/A   Mostly Cloudy
2:55 AM 59.9 °F 48.6 °F 66% 30.18 in 10.0 mi Calm Calm - N/A   Overcast
3:15 AM 60.1 °F 48.7 °F 66% 30.18 in 10.0 mi Calm Calm - N/A   Overcast
3:35 AM 60.1 °F 48.9 °F 67% 30.18 in 10.0 mi SW 3.5 mph - N/A   Mostly Cloudy
3:55 AM 59.5 °F 49.1 °F 68% 30.18 in 10.0 mi SSW 3.5 mph - N/A   Scattered Clouds
4:15 AM 58.6 °F 49.1 °F 71% 30.17 in 10.0 mi Calm Calm - N/A   Clear
4:35 AM 57.7 °F 49.1 °F 73% 30.16 in 10.0 mi South 4.6 mph - N/A   Scattered Clouds
4:55 AM 58.1 °F 49.3 °F 72% 30.15 in 10.0 mi South 4.6 mph - N/A   Mostly Cloudy
5:15 AM 58.3 °F 49.3 °F 72% 30.15 in 10.0 mi Calm Calm - N/A   Mostly Cloudy
5:35 AM 59.0 °F 49.5 °F 71% 30.14 in 10.0 mi Calm Calm - N/A   Mostly Cloudy
5:55 AM 59.4 °F 49.6 °F 70% 30.14 in 10.0 mi SSW 5.8 mph - N/A   Mostly Cloudy
6:15 AM 59.5 °F 49.8 °F 70% 30.14 in 10.0 mi SSW 4.6 mph - N/A   Scattered Clouds
6:35 AM 60.4 °F 49.6 °F 68% 30.14 in 10.0 mi SSW 8.1 mph - N/A   Clear
6:55 AM 61.0 °F 49.6 °F 66% 30.15 in 10.0 mi SW 6.9 mph - N/A   Clear
7:15 AM 61.7 °F 50.0 °F 65% 30.15 in 10.0 mi SW 8.1 mph - N/A   Clear
7:35 AM 64.4 °F 50.7 °F 61% 30.15 in 10.0 mi SW 10.4 mph - N/A   Clear
7:55 AM 63.9 °F 50.5 °F 62% 30.14 in 10.0 mi SW 9.2 mph - N/A   Clear
8:15 AM 64.2 °F 50.9 °F 62% 30.14 in 10.0 mi SW 6.9 mph 18.4 mph N/A   Clear
8:35 AM 66.6 °F 50.9 °F 57% 30.14 in 10.0 mi SSW 15.0 mph 21.9 mph N/A   Clear
8:55 AM 67.5 °F 51.6 °F 57% 30.13 in 10.0 mi SW 15.0 mph 20.7 mph N/A   Clear
9:15 AM 68.4 °F 52.9 °F 58% 30.12 in 10.0 mi SW 10.4 mph 16.1 mph N/A   Clear
9:35 AM 68.9 °F 52.5 °F 56% 30.11 in 10.0 mi SW 17.3 mph 24.2 mph N/A   Clear
9:55 AM 68.9 °F 52.5 °F 56% 30.11 in 10.0 mi SSW 8.1 mph 21.9 mph N/A   Clear
10:15 AM 70.3 °F 53.2 °F 55% 30.10 in 10.0 mi SW 10.4 mph 20.7 mph N/A   Clear
10:35 AM 71.1 °F 54.0 °F 55% 30.09 in 10.0 mi SW 11.5 mph 18.4 mph N/A   Clear
10:55 AM 71.1 °F 52.7 °F 52% 30.09 in 10.0 mi SW 13.8 mph 18.4 mph N/A   Clear
11:15 AM 72.1 °F 53.4 °F 52% 30.08 in 10.0 mi SW 13.8 mph 20.7 mph N/A   Clear
11:35 AM 72.5 °F 54.3 °F 53% 30.07 in 10.0 mi SSW 10.4 mph 23.0 mph N/A   Clear
11:55 AM 72.7 °F 53.2 °F 50% 30.06 in 10.0 mi SW 11.5 mph 21.9 mph N/A   Clear
12:15 PM 74.3 °F 54.3 °F 50% 30.05 in 10.0 mi SSW 9.2 mph 16.1 mph N/A   Clear
12:35 PM 73.6 °F 53.8 °F 50% 30.05 in 10.0 mi SW 12.7 mph 27.6 mph N/A   Clear
12:55 PM 74.3 °F 53.6 °F 48% 30.04 in 10.0 mi SSW 12.7 mph 21.9 mph N/A   Clear
1:15 PM 74.7 °F 54.9 °F 50% 30.03 in 10.0 mi SW 9.2 mph 19.6 mph N/A   Clear
1:35 PM 75.2 °F 55.2 °F 50% 30.03 in 10.0 mi SSW 11.5 mph 23.0 mph N/A   Clear
1:55 PM 75.4 °F 55.2 °F 49% 30.02 in 10.0 mi SW 12.7 mph 20.7 mph N/A   Clear
2:15 PM 76.1 °F 55.8 °F 49% 30.02 in 10.0 mi SW 16.1 mph 24.2 mph N/A   Clear
2:35 PM 76.5 °F 55.9 °F 49% 30.01 in 10.0 mi SSW 10.4 mph 17.3 mph N/A   Scattered Clouds
2:55 PM 76.3 °F 55.2 °F 48% 30.01 in 10.0 mi SW 12.7 mph 21.9 mph N/A   Clear
3:15 PM 76.6 °F 54.5 °F 46% 30.01 in 10.0 mi SW 17.3 mph 23.0 mph N/A   Clear
3:35 PM 76.8 °F 54.3 °F 46% 30.01 in 10.0 mi SW 10.4 mph 21.9 mph N/A   Clear
3:55 PM 77.0 °F 55.0 °F 47% 30.01 in 10.0 mi SSW 12.7 mph 23.0 mph N/A   Clear
4:15 PM 76.8 °F 54.9 °F 46% 30.01 in 10.0 mi SSW 9.2 mph 19.6 mph N/A   Clear
4:35 PM 77.7 °F 55.2 °F 46% 29.99 in 10.0 mi SSW 9.2 mph 17.3 mph N/A   Clear
4:55 PM 77.9 °F 55.2 °F 45% 29.98 in 10.0 mi SSW 11.5 mph 18.4 mph N/A   Clear
5:15 PM 77.5 °F 54.3 °F 44% 29.97 in 10.0 mi SSW 10.4 mph 17.3 mph N/A   Clear
5:35 PM 76.8 °F 53.8 °F 45% 29.96 in 10.0 mi SW 11.5 mph 19.6 mph N/A   Clear
5:55 PM 77.0 °F 55.0 °F 47% 29.95 in 10.0 mi SW 11.5 mph 18.4 mph N/A   Clear
6:15 PM 75.7 °F 54.9 °F 48% 29.96 in 10.0 mi SW 11.5 mph 19.6 mph N/A   Clear
6:35 PM 75.6 °F 55.2 °F 49% 29.95 in 10.0 mi SSW 9.2 mph 18.4 mph N/A   Clear
6:55 PM 73.9 °F 55.9 °F 53% 29.94 in 10.0 mi SW 8.1 mph 17.3 mph N/A   Clear
7:15 PM 73.6 °F 56.5 °F 55% 29.94 in 10.0 mi SSW 8.1 mph 17.3 mph N/A   Scattered Clouds
7:35 PM 73.4 °F 56.5 °F 55% 29.93 in 10.0 mi SSW 9.2 mph - N/A   Mostly Cloudy
7:55 PM 72.7 °F 56.3 °F 56% 29.93 in 10.0 mi SW 9.2 mph - N/A   Mostly Cloudy
8:15 PM 72.3 °F 56.3 °F 57% 29.94 in 10.0 mi WSW 5.8 mph - N/A   Mostly Cloudy
8:35 PM 72.7 °F 56.3 °F 56% 29.97 in 10.0 mi North 6.9 mph - N/A   Overcast
8:55 PM 70.7 °F 58.1 °F 64% 29.96 in 10.0 mi WSW 4.6 mph - N/A Rain Light Rain
9:15 PM 71.6 °F 57.4 °F 61% 29.94 in 10.0 mi SW 6.9 mph - N/A   Overcast
9:35 PM 67.6 °F 60.1 °F 77% 29.93 in 10.0 mi SW 9.2 mph - 0.01 in Rain Light Rain
9:55 PM 66.7 °F 60.8 °F 81% 29.93 in 10.0 mi Calm Calm - 0.01 in   Mostly Cloudy
10:15 PM 66.2 °F 60.8 °F 83% 29.95 in 10.0 mi WSW 4.6 mph - N/A   Mostly Cloudy
10:35 PM 66.4 °F 63.5 °F 90% 29.94 in 10.0 mi SW 4.6 mph - N/A   Overcast
10:55 PM 67.3 °F 60.6 °F 79% 29.94 in 10.0 mi SSW 5.8 mph - N/A   Overcast
11:15 PM 67.3 °F 60.1 °F 78% 29.94 in 10.0 mi SW 4.6 mph - N/A   Overcast
11:35 PM 67.1 °F 59.9 °F 78% 29.93 in 10.0 mi SW 8.1 mph - N/A   Overcast
11:55 PM 66.6 °F 59.7 °F 79% 29.93 in 10.0 mi SW 4.6 mph - N/A   Mostly Cloudy